Location: Murdochville
(48.9591°N, 65.4950°W)
Time: 22:38:25
(UTC-04:00)

Envisat - Pass Details

Date: 23 April 2026
Orbit: 761 x 762 km, 98.4° (Epoch: 15 May)

Event Time Altitude Azimuth Distance (km) Brightness Sun altitude
Rises 02:13:52 0° 22° (NNE) 3,235 7.6 -23.6°
Reaches altitude 10° 02:16:27 10° 33° (NNE) 2,304 6.6 -23.4°
Maximum altitude 02:20:53 30° 94° (E) 1,350 4.5 -23.0°
Enters shadow 02:23:38 19° 142° (SE) 1,776 4.7 -22.7°
